Location: *
(50.3440°N, 18.6237°E)
Time: 13:15:15
(UTC+00:00)

SL-24 R/B - Pass Details

Date: 30 November 2020
Orbit: 505 x 1002 km, 97.4° (Epoch: 26 January)

Event Time Altitude Azimuth Distance (km) Brightness Sun altitude
Exits shadow 16:50:01 49° 104° (ESE) 689 3.9 -19.0°
Drops below altitude 10° 16:53:30 10° 175° (S) 1,725 6.4 -19.6°
Sets 16:55:34 0° 181° (S) 2,596 7.4 -19.9°
